< < Back
Terminal Aerodrome Forecast


Current Version              Previous Versions:   1  2  3  4  5  6  7  8  9  

Terminal Aerodrome Forecast

202
FTUS42 KGSP 032335
TAFAND
TAF
KAND 032335Z 0400/0424 26011KT P6SM SCT060
     FM040300 28006KT P6SM FEW060
     FM041000 00000KT P6SM FEW060
     FM041400 27007KT P6SM FEW060
     FM041700 27012G20KT P6SM SCT060=

Latest METAR

368
SAUS70 KWBC 051600
MTRAND
METAR KAND 051556Z AUTO 30016G21KT 10SM FEW065 17/02 A2970 RMK AO2
SLP052 T01720017


USA.gov is the U.S. government's official web portal to all federal, state and local government web resources and services.